,,,PA_Meas_PMT16A,,PR_Meas_QMR101_102,,RH_Meas_QMH101,,SR_Meas_QMS101,,TA_Meas_QMH101,,GenWind,,GenWind,
date,time,status,PA,status,PR,status,RH,status,SR,status,TA,status,DirAvg,status,SpdAvg,
2009-05-04, 00:00:04,VALID,1005.17,VALID,0,VALID,87.3736,VALID,0,VALID,26.5855,VALID,10,VALID,0.594531,
2009-05-04, 00:01:04,VALID,1005.17,VALID,0,VALID,87.3736,VALID,0.100563,VALID,26.5661,VALID,23,VALID,1.03281,
2009-05-04, 00:02:04,VALID,1005.16,VALID,0,VALID,87.4575,VALID,0,VALID,26.5466,VALID,23,VALID,0.662109,
2009-05-04, 00:03:04,VALID,1005.15,VALID,0,VALID,87.6635,VALID,0,VALID,26.5271,VALID,24,VALID,0.419922,
2009-05-04, 00:04:04,VALID,1005.12,VALID,0,VALID,87.7474,VALID,0,VALID,26.5076,VALID,23,VALID,1.08477,
2009-05-04, 00:05:04,VALID,1005.11,VALID,0,VALID,87.7626,VALID,0,VALID,26.5681,VALID,30,VALID,0.977344,
2009-05-04, 00:06:04,VALID,1005.09,VALID,0,VALID,87.7245,VALID,0,VALID,26.5251,VALID,71,VALID,0.980469,
2009-05-04, 00:07:04,VALID,1005.08,VALID,0,VALID,87.5795,VALID,0,VALID,26.5446,VALID,35,VALID,0.776953,
2009-05-04, 00:08:04,VALID,1005.09,VALID,0,VALID,87.4651,VALID,0.100563,VALID,26.5641,VALID,69,VALID,0.362891,
2009-05-04, 00:09:04,VALID,1005.08,VALID,0,VALID,87.488,VALID,0,VALID,26.5661,VALID,27,VALID,0.644922,
2009-05-04, 00:10:05,VALID,1005.09,VALID,0,VALID,87.488,VALID,0,VALID,26.5661,VALID,15,VALID,0.757031,
2009-05-04, 00:11:05,VALID,1005.12,VALID,0,VALID,87.5033,VALID,0,VALID,26.5661,VALID,359,VALID,0.805078,
2009-05-04, 00:12:05,VALID,1005.11,VALID,0,VALID,87.427,VALID,0,VALID,26.5661,VALID,14,VALID,0.468359,
2009-05-04, 00:13:05,VALID,1005.12,VALID,0,VALID,87.3507,VALID,0,VALID,26.5855,VALID,16,VALID,0.869141,
2009-05-04, 00:14:05,VALID,1005.1,VALID,0,VALID,87.2439,VALID,0.100563,VALID,26.6245,VALID,41,VALID,0.711719,
2009-05-04, 00:15:05,VALID,1005.11,VALID,0,VALID,87.1752,VALID,0,VALID,26.605,VALID,1,VALID,0.522656,
2009-05-04, 00:16:05,VALID,1005.09,VALID,0,VALID,87.2439,VALID,0,VALID,26.5855,VALID,27,VALID,0.603906,
2009-05-04, 00:17:05,VALID,1005.1,VALID,0,VALID,87.3125,VALID,0,VALID,26.5661,VALID,14,VALID,0.987891,
2009-05-04, 00:18:05,VALID,1005.08,VALID,0,VALID,87.2515,VALID,0,VALID,26.5855,VALID,38,VALID,0.633203,
2009-05-04, 00:19:05,VALID,1005.07,VALID,0,VALID,87.2668,VALID,0,VALID,26.5466,VALID,31,VALID,0.578516,
2009-05-04, 00:20:05,VALID,1005.05,VALID,0,VALID,87.4117,VALID,0.100563,VALID,26.5271,VALID,25,VALID,0.323828,
2009-05-04, 00:21:05,VALID,1005.05,VALID,0,VALID,87.5185,VALID,0,VALID,26.4881,VALID,25,VALID,0.566406,
2009-05-04, 00:22:05,VALID,1005.03,VALID,0,VALID,87.6863,VALID,0,VALID,26.4297,VALID,32,VALID,0.721094,
2009-05-04, 00:23:05,VALID,1005.05,VALID,0,VALID,87.9228,VALID,0,VALID,26.3907,VALID,32,VALID,0.541406,
2009-05-04, 00:24:05,VALID,1005.02,VALID,0,VALID,88.0678,VALID,0,VALID,26.3907,VALID,50,VALID,0.553906,
2009-05-04, 00:25:05,VALID,1005.04,VALID,0,VALID,87.9305,VALID,0,VALID,26.4082,VALID,68,VALID,0.192188,
2009-05-04, 00:26:05,VALID,1005.04,VALID,0,VALID,87.8847,VALID,0,VALID,26.4297,VALID,73,VALID,0.414844,
2009-05-04, 00:27:05,VALID,1005.01,VALID,0,VALID,87.8466,VALID,0,VALID,26.3907,VALID,45,VALID,0.25,
2009-05-04, 00:28:05,VALID,1004.98,VALID,0,VALID,87.9381,VALID,0,VALID,26.3713,VALID,43,VALID,0.123438,
2009-05-04, 00:29:05,VALID,1004.95,VALID,0,VALID,88.0831,VALID,0,VALID,26.3733,VALID,64,VALID,0.873828,
2009-05-04, 00:30:05,VALID,1004.98,VALID,0,VALID,88.1059,VALID,0,VALID,26.3323,VALID,57,VALID,0.765625,
2009-05-04, 00:31:05,VALID,1004.95,VALID,0,VALID,88.022,VALID,0,VALID,26.3907,VALID,51,VALID,0.415625,
2009-05-04, 00:32:05,VALID,1004.94,VALID,0,VALID,87.8618,VALID,0,VALID,26.3907,VALID,51,VALID,0.330469,
2009-05-04, 00:33:05,VALID,1004.97,VALID,0,VALID,87.816,VALID,0,VALID,26.3713,VALID,51,VALID,0.4,
2009-05-04, 00:34:05,VALID,1004.95,VALID,0,VALID,87.9076,VALID,0,VALID,26.3538,VALID,50,VALID,0.342969,
2009-05-04, 00:35:05,VALID,1004.96,VALID,0,VALID,88.1746,VALID,0,VALID,26.3128,VALID,26,VALID,0.618359,
2009-05-04, 00:36:05,VALID,1004.95,VALID,0,VALID,88.0296,VALID,0,VALID,26.3128,VALID,10,VALID,0.321875,
2009-05-04, 00:37:05,VALID,1004.96,VALID,0,VALID,88.1365,VALID,0,VALID,26.2739,VALID,13,VALID,0.617969,
2009-05-04, 00:38:05,VALID,1004.97,VALID,0,VALID,88.2738,VALID,0,VALID,26.2544,VALID,17,VALID,0.703125,
2009-05-04, 00:39:05,VALID,1004.91,VALID,0,VALID,88.4721,VALID,0,VALID,26.3148,VALID,41,VALID,0.678906,
2009-05-04, 00:40:05,VALID,1004.9,VALID,0,VALID,88.228,VALID,0,VALID,26.3343,VALID,355,VALID,0.928125,
2009-05-04, 00:41:05,VALID,1004.87,VALID,0,VALID,88.1212,VALID,0,VALID,26.3713,VALID,30,VALID,1.0457,
2009-05-04, 00:42:05,VALID,1004.85,VALID,0,VALID,87.7626,VALID,0,VALID,26.4472,VALID,20,VALID,0.845703,
2009-05-04, 00:43:05,VALID,1004.84,VALID,0,VALID,87.4193,VALID,0,VALID,26.4881,VALID,28,VALID,1.03672,
2009-05-04, 00:44:05,VALID,1004.88,VALID,0,VALID,87.221,VALID,0,VALID,26.5096,VALID,6,VALID,0.755859,
2009-05-04, 00:45:05,VALID,1004.86,VALID,0,VALID,87.2973,VALID,0,VALID,26.4881,VALID,28,VALID,0.919922,
2009-05-04, 00:46:05,VALID,1004.84,VALID,0,VALID,87.3583,VALID,0,VALID,26.4297,VALID,28,VALID,0.457422,
2009-05-04, 00:47:05,VALID,1004.83,VALID,0,VALID,87.6101,VALID,0,VALID,26.3693,VALID,19,VALID,0.653125,
2009-05-04, 00:48:05,VALID,1004.83,VALID,0,VALID,87.7398,VALID,0,VALID,26.3713,VALID,351,VALID,0.813281,
2009-05-04, 00:49:05,VALID,1004.82,VALID,0,VALID,87.8694,VALID,0,VALID,26.3518,VALID,1,VALID,1.01875,
2009-05-04, 00:50:05,VALID,1004.81,VALID,0,VALID,87.6711,VALID,0,VALID,26.4901,VALID,38,VALID,0.525781,
2009-05-04, 00:51:05,VALID,1004.83,VALID,0,VALID,87.1676,VALID,0,VALID,26.5271,VALID,69,VALID,0.234375,
2009-05-04, 00:52:05,VALID,1004.84,VALID,0,VALID,87.2668,VALID,0,VALID,26.5271,VALID,114,VALID,0.570313,
2009-05-04, 00:53:05,VALID,1004.85,VALID,0,VALID,87.16,VALID,0,VALID,26.5271,VALID,30,VALID,0.359375,
2009-05-04, 00:54:05,VALID,1004.85,VALID,0,VALID,87.1218,VALID,0,VALID,26.5056,VALID,30,VALID,0.426172,
2009-05-04, 00:55:05,VALID,1004.85,VALID,0,VALID,87.1828,VALID,0,VALID,26.4687,VALID,30,VALID,0.368359,
2009-05-04, 00:56:05,VALID,1004.83,VALID,0,VALID,87.5033,VALID,0,VALID,26.4492,VALID,76,VALID,0.441406,
2009-05-04, 00:57:05,VALID,1004.86,VALID,0,VALID,87.4422,VALID,0,VALID,26.4492,VALID,29,VALID,0.220703,
2009-05-04, 00:58:05,VALID,1004.82,VALID,0,VALID,87.6024,VALID,0,VALID,26.4297,VALID,29,VALID,0.564453,
2009-05-04, 00:59:05,VALID,1004.8,VALID,0,VALID,87.6101,VALID,0,VALID,26.4102,VALID,1,VALID,0.272656,
2009-05-04, 01:00:05,VALID,1004.78,VALID,0,VALID,87.755,VALID,0,VALID,26.4102,VALID,87,VALID,0.610547,
2009-05-04, 01:01:05,VALID,1004.77,VALID,0,VALID,87.6406,VALID,0,VALID,26.4687,VALID,10,VALID,1.01641,
2009-05-04, 01:02:05,VALID,1004.74,VALID,0,VALID,87.5185,VALID,0,VALID,26.4687,VALID,25,VALID,0.749219,
2009-05-04, 01:03:05,VALID,1004.75,VALID,0,VALID,87.5109,VALID,0,VALID,26.4687,VALID,29,VALID,0.421484,
2009-05-04, 01:04:05,VALID,1004.77,VALID,0,VALID,87.3888,VALID,0,VALID,26.5466,VALID,18,VALID,1.05977,
2009-05-04, 01:05:05,VALID,1004.76,VALID,0,VALID,86.9387,VALID,0,VALID,26.6245,VALID,31,VALID,0.830078,
2009-05-04, 01:06:05,VALID,1004.75,VALID,0,VALID,86.9235,VALID,0,VALID,26.605,VALID,35,VALID,1.14219,
2009-05-04, 01:07:05,VALID,1004.78,VALID,0,VALID,86.6641,VALID,0,VALID,26.6245,VALID,8,VALID,0.676953,
2009-05-04, 01:08:05,VALID,1004.79,VALID,0,VALID,86.7327,VALID,0,VALID,26.605,VALID,5,VALID,0.828125,
2009-05-04, 01:09:05,VALID,1004.77,VALID,0,VALID,86.8548,VALID,0,VALID,26.5661,VALID,29,VALID,0.807031,
2009-05-04, 01:10:05,VALID,1004.78,VALID,0,VALID,86.9769,VALID,0,VALID,26.5271,VALID,26,VALID,0.409766,
2009-05-04, 01:11:05,VALID,1004.79,VALID,0,VALID,87.221,VALID,0,VALID,26.4687,VALID,26,VALID,0.116797,
2009-05-04, 01:12:05,VALID,1004.77,VALID,0,VALID,87.3354,VALID,0,VALID,26.4492,VALID,23,VALID,0.530078,
2009-05-04, 01:13:05,VALID,1004.77,VALID,0,VALID,87.488,VALID,0,VALID,26.4102,VALID,4,VALID,0.577344,
2009-05-04, 01:14:05,VALID,1004.75,VALID,0,VALID,87.4804,VALID,0,VALID,26.3907,VALID,10,VALID,0.371484,
2009-05-04, 01:15:05,VALID,1004.74,VALID,0,VALID,87.7245,VALID,0,VALID,26.3323,VALID,5,VALID,0.484766,
2009-05-04, 01:16:05,VALID,1004.76,VALID,0,VALID,87.8542,VALID,0,VALID,26.2933,VALID,358,VALID,0.326953,
2009-05-04, 01:17:05,VALID,1004.73,VALID,0,VALID,88.289,VALID,0,VALID,26.2933,VALID,25,VALID,0.81875,
2009-05-04, 01:18:05,VALID,1004.7,VALID,0,VALID,88.1822,VALID,0,VALID,26.3128,VALID,25,VALID,0.780078,
2009-05-04, 01:19:05,VALID,1004.73,VALID,0,VALID,88.0983,VALID,0,VALID,26.3128,VALID,30,VALID,0.188281,
2009-05-04, 01:20:05,VALID,1004.69,VALID,0,VALID,88.022,VALID,0,VALID,26.3108,VALID,30,VALID,0.0980469,
2009-05-04, 01:21:05,VALID,1004.69,VALID,0,VALID,87.961,VALID,0,VALID,26.2933,VALID,30,VALID,0.326172,
2009-05-04, 01:22:05,VALID,1004.73,VALID,0,VALID,88.0831,VALID,0,VALID,26.2544,VALID,30,VALID,0.371094,
2009-05-04, 01:23:05,VALID,1004.71,VALID,0,VALID,88.2433,VALID,0,VALID,26.1959,VALID,35,VALID,0.391016,
2009-05-04, 01:24:05,VALID,1004.69,VALID,0,VALID,88.5103,VALID,0,VALID,26.157,VALID,15,VALID,0.45,
2009-05-04, 01:25:05,VALID,1004.65,VALID,0,VALID,88.6476,VALID,0,VALID,26.1375,VALID,11,VALID,0.589063,
2009-05-04, 01:26:05,VALID,1004.67,VALID,0,VALID,88.6628,VALID,0,VALID,26.0771,VALID,11,VALID,0.544922,
2009-05-04, 01:27:05,VALID,1004.63,VALID,0,VALID,88.7849,VALID,0,VALID,26.0596,VALID,11,VALID,0.317969,
2009-05-04, 01:28:05,VALID,1004.62,VALID,0,VALID,89.1053,VALID,0,VALID,26.0381,VALID,14,VALID,0.0882813,
2009-05-04, 01:29:05,VALID,1004.59,VALID,0,VALID,89.5554,VALID,0,VALID,26.0596,VALID,3,VALID,1.79688,
2009-05-04, 01:30:05,VALID,1004.61,VALID,0,VALID,88.8231,VALID,0,VALID,26.2349,VALID,20,VALID,0.684375,
2009-05-04, 01:31:05,VALID,1004.58,VALID,0,VALID,88.4874,VALID,0,VALID,26.2933,VALID,19,VALID,0.602344,
2009-05-04, 01:32:05,VALID,1004.6,VALID,0,VALID,88.0983,VALID,0,VALID,26.3128,VALID,20,VALID,0.342187,
2009-05-04, 01:33:05,VALID,1004.57,VALID,0,VALID,88.0831,VALID,0,VALID,26.2933,VALID,94,VALID,0.358203,
2009-05-04, 01:34:05,VALID,1004.58,VALID,0,VALID,88.0907,VALID,0,VALID,26.2524,VALID,94,VALID,0.213672,
2009-05-04, 01:35:05,VALID,1004.56,VALID,0,VALID,88.1288,VALID,0,VALID,26.2544,VALID,94,VALID,0.184375,
2009-05-04, 01:36:05,VALID,1004.58,VALID,0,VALID,88.3043,VALID,0,VALID,26.2349,VALID,93,VALID,0.142969,
2009-05-04, 01:37:05,VALID,1004.54,VALID,0,VALID,88.3806,VALID,0,VALID,26.1745,VALID,93,VALID,0.0316406,
2009-05-04, 01:38:05,VALID,1004.55,VALID,0,VALID,88.495,VALID,0,VALID,26.157,VALID,93,VALID,0.00195313,
2009-05-04, 01:39:05,VALID,1004.51,VALID,0,VALID,88.6323,VALID,0,VALID,26.118,VALID,93,VALID,0.346875,
2009-05-04, 01:40:05,VALID,1004.54,VALID,0,VALID,88.907,VALID,0,VALID,26.0985,VALID,26,VALID,1.23789,
2009-05-04, 01:41:05,VALID,1004.5,VALID,0,VALID,89.029,VALID,0,VALID,26.118,VALID,39,VALID,0.452734,
2009-05-04, 01:42:05,VALID,1004.49,VALID,0,VALID,88.9299,VALID,0,VALID,26.0985,VALID,34,VALID,0.700391,
2009-05-04, 01:43:05,VALID,1004.45,VALID,0,VALID,88.9909,VALID,0,VALID,26.0985,VALID,49,VALID,0.5625,
2009-05-04, 01:44:05,VALID,1004.45,VALID,0,VALID,88.8841,VALID,0,VALID,26.0596,VALID,48,VALID,0.495313,
2009-05-04, 01:45:05,VALID,1004.42,VALID,0,VALID,89.0748,VALID,0,VALID,26.118,VALID,41,VALID,0.473437,
2009-05-04, 01:46:05,VALID,1004.39,VALID,0,VALID,89.0061,VALID,0,VALID,26.0985,VALID,36,VALID,0.839063,
2009-05-04, 01:47:05,VALID,1004.39,VALID,0,VALID,89.0138,VALID,0,VALID,26.1375,VALID,35,VALID,0.429297,
2009-05-04, 01:48:05,VALID,1004.39,VALID,0,VALID,88.8459,VALID,0,VALID,26.157,VALID,22,VALID,0.654688,
2009-05-04, 01:49:05,VALID,1004.42,VALID,0,VALID,88.7391,VALID,0,VALID,26.2349,VALID,23,VALID,0.827344,
2009-05-04, 01:50:05,VALID,1004.43,VALID,0,VALID,88.4721,VALID,0,VALID,26.2739,VALID,4,VALID,1.01797,
2009-05-04, 01:51:05,VALID,1004.45,VALID,0,VALID,88.4035,VALID,0,VALID,26.3128,VALID,33,VALID,1.20625,
2009-05-04, 01:52:05,VALID,1004.41,VALID,0,VALID,88.289,VALID,0,VALID,26.2933,VALID,9,VALID,1.07969,
2009-05-04, 01:53:05,VALID,1004.45,VALID,0,VALID,88.0754,VALID,0,VALID,26.3128,VALID,20,VALID,0.610547,
2009-05-04, 01:54:05,VALID,1004.43,VALID,0,VALID,88.4416,VALID,0,VALID,26.2524,VALID,24,VALID,0.988281,
2009-05-04, 01:55:05,VALID,1004.41,VALID,0,VALID,88.3501,VALID,0,VALID,26.3323,VALID,46,VALID,0.740234,
2009-05-04, 01:56:05,VALID,1004.42,VALID,0,VALID,88.1288,VALID,0,VALID,26.3518,VALID,77,VALID,0.399609,
2009-05-04, 01:57:05,VALID,1004.42,VALID,0,VALID,88.0068,VALID,0,VALID,26.3713,VALID,28,VALID,0.421875,
2009-05-04, 01:58:05,VALID,1004.38,VALID,0,VALID,88.0754,VALID,0,VALID,26.3518,VALID,13,VALID,1.15703,
2009-05-04, 01:59:05,VALID,1004.39,VALID,0,VALID,87.8923,VALID,0,VALID,26.4102,VALID,27,VALID,0.994141,
2009-05-04, 02:00:05,VALID,1004.4,VALID,0,VALID,87.6177,VALID,0,VALID,26.4297,VALID,19,VALID,0.798828,
2009-05-04, 02:01:05,VALID,1004.36,VALID,0,VALID,87.7169,VALID,0,VALID,26.4297,VALID,32,VALID,0.906641,
2009-05-04, 02:02:05,VALID,1004.38,VALID,0,VALID,87.5948,VALID,0,VALID,26.4492,VALID,14,VALID,0.844922,
2009-05-04, 02:03:05,VALID,1004.35,VALID,0,VALID,87.5261,VALID,0,VALID,26.4277,VALID,14,VALID,0.401172,
2009-05-04, 02:04:05,VALID,1004.39,VALID,0,VALID,87.5567,VALID,0,VALID,26.3907,VALID,26,VALID,1.16406,
2009-05-04, 02:05:05,VALID,1004.34,VALID,0,VALID,87.8466,VALID,0,VALID,26.3907,VALID,13,VALID,1.18789,
2009-05-04, 02:06:05,VALID,1004.37,VALID,0,VALID,87.6635,VALID,0,VALID,26.4102,VALID,37,VALID,0.764844,
2009-05-04, 02:07:05,VALID,1004.37,VALID,0,VALID,87.7016,VALID,0,VALID,26.4297,VALID,31,VALID,1.16758,
2009-05-04, 02:08:05,VALID,1004.34,VALID,0,VALID,87.5948,VALID,0,VALID,26.4297,VALID,24,VALID,0.353906,
2009-05-04, 02:09:05,VALID,1004.35,VALID,0,VALID,87.6406,VALID,0,VALID,26.3887,VALID,9,VALID,0.408984,
2009-05-04, 02:10:05,VALID,1004.35,VALID,0,VALID,87.755,VALID,0,VALID,26.4102,VALID,33,VALID,0.957031,
2009-05-04, 02:11:05,VALID,1004.34,VALID,0,VALID,87.6787,VALID,0,VALID,26.4102,VALID,14,VALID,0.726563,
2009-05-04, 02:12:05,VALID,1004.31,VALID,0,VALID,87.8847,VALID,0,VALID,26.4122,VALID,38,VALID,0.966797,
2009-05-04, 02:13:05,VALID,1004.28,VALID,0,VALID,87.7703,VALID,0,VALID,26.4492,VALID,22,VALID,0.891406,
2009-05-04, 02:14:05,VALID,1004.28,VALID,0,VALID,87.5872,VALID,0,VALID,26.4492,VALID,20,VALID,0.401563,
2009-05-04, 02:15:05,VALID,1004.28,VALID,0,VALID,87.6253,VALID,0,VALID,26.4297,VALID,38,VALID,1.16133,
2009-05-04, 02:16:05,VALID,1004.27,VALID,0,VALID,87.6101,VALID,0,VALID,26.3887,VALID,20,VALID,0.615625,
2009-05-04, 02:17:05,VALID,1004.24,VALID,0,VALID,87.6253,VALID,0,VALID,26.4102,VALID,45,VALID,0.532812,
2009-05-04, 02:18:05,VALID,1004.23,VALID,0,VALID,87.4575,VALID,0,VALID,26.3907,VALID,40,VALID,0.746094,
2009-05-04, 02:19:05,VALID,1004.18,VALID,0,VALID,87.7398,VALID,0,VALID,26.3518,VALID,9,VALID,0.455859,
2009-05-04, 02:20:05,VALID,1004.23,VALID,0,VALID,87.7626,VALID,0,VALID,26.3907,VALID,25,VALID,0.426953,
2009-05-04, 02:21:05,VALID,1004.22,VALID,0,VALID,87.8389,VALID,0,VALID,26.3907,VALID,42,VALID,0.733984,
2009-05-04, 02:22:05,VALID,1004.22,VALID,0,VALID,87.7474,VALID,0,VALID,26.3907,VALID,347,VALID,1.02422,
2009-05-04, 02:23:05,VALID,1004.26,VALID,0,VALID,87.7474,VALID,0,VALID,26.4102,VALID,19,VALID,0.661328,
2009-05-04, 02:24:05,VALID,1004.26,VALID,0,VALID,87.6711,VALID,0,VALID,26.4492,VALID,6,VALID,0.903906,
2009-05-04, 02:25:05,VALID,1004.29,VALID,0,VALID,87.4422,VALID,0,VALID,26.5096,VALID,13,VALID,0.669531,
2009-05-04, 02:26:05,VALID,1004.33,VALID,0,VALID,87.3278,VALID,0,VALID,26.4881,VALID,13,VALID,0.175781,
2009-05-04, 02:27:05,VALID,1004.37,VALID,0,VALID,87.3354,VALID,0,VALID,26.5076,VALID,51,VALID,0.54375,
2009-05-04, 02:28:05,VALID,1004.36,VALID,0,VALID,87.3125,VALID,0,VALID,26.5076,VALID,46,VALID,0.426562,
2009-05-04, 02:29:05,VALID,1004.41,VALID,0,VALID,87.3049,VALID,0,VALID,26.5076,VALID,92,VALID,0.250781,
2009-05-04, 02:30:05,VALID,1004.41,VALID,0,VALID,87.3812,VALID,0,VALID,26.4881,VALID,33,VALID,0.572656,
2009-05-04, 02:31:05,VALID,1004.42,VALID,0,VALID,87.3583,VALID,0,VALID,26.4881,VALID,14,VALID,0.0855469,
2009-05-04, 02:32:05,VALID,1004.4,VALID,0,VALID,87.4346,VALID,0,VALID,26.4492,VALID,94,VALID,0.352344,
2009-05-04, 02:33:05,VALID,1004.39,VALID,0,VALID,87.488,VALID,0,VALID,26.4297,VALID,93,VALID,0.161719,
2009-05-04, 02:34:05,VALID,1004.39,VALID,0,VALID,87.5567,VALID,0,VALID,26.3887,VALID,57,VALID,0.533984,
2009-05-04, 02:35:05,VALID,1004.35,VALID,0,VALID,87.816,VALID,0,VALID,26.3713,VALID,51,VALID,0.650781,
2009-05-04, 02:36:05,VALID,1004.35,VALID,0,VALID,87.8084,VALID,0,VALID,26.3713,VALID,42,VALID,0.576563,
2009-05-04, 02:37:05,VALID,1004.33,VALID,0,VALID,87.8847,VALID,0,VALID,26.2913,VALID,36,VALID,0.452344,
2009-05-04, 02:38:05,VALID,1004.32,VALID,0,VALID,88.0144,VALID,0,VALID,26.2329,VALID,34,VALID,0.720703,
2009-05-04, 02:39:05,VALID,1004.35,VALID,0,VALID,88.4492,VALID,0,VALID,26.2349,VALID,10,VALID,0.9125,
2009-05-04, 02:40:05,VALID,1004.37,VALID,0,VALID,88.4798,VALID,0,VALID,26.2544,VALID,356,VALID,0.917578,
2009-05-04, 02:41:05,VALID,1004.42,VALID,0,VALID,88.1059,VALID,0,VALID,26.2933,VALID,13,VALID,0.680078,
2009-05-04, 02:42:05,VALID,1004.44,VALID,0,VALID,88.2738,VALID,0,VALID,26.2134,VALID,33,VALID,1.81211,
2009-05-04, 02:43:05,VALID,1004.47,VALID,0,VALID,88.4645,VALID,0,VALID,26.2739,VALID,348,VALID,1.79258,
2009-05-04, 02:44:05,VALID,1004.49,VALID,0,VALID,88.0907,VALID,0.100563,VALID,26.3108,VALID,3,VALID,0.803125,
2009-05-04, 02:45:05,VALID,1004.5,VALID,0,VALID,88.1136,VALID,0,VALID,26.3128,VALID,351,VALID,0.785547,
2009-05-04, 02:46:05,VALID,1004.48,VALID,0,VALID,88.1365,VALID,0,VALID,26.194,VALID,33,VALID,0.874219,
2009-05-04, 02:47:05,VALID,1004.47,VALID,0,VALID,88.5026,VALID,0,VALID,26.194,VALID,35,VALID,0.396484,
2009-05-04, 02:48:05,VALID,1004.48,VALID,0,VALID,88.6094,VALID,0,VALID,26.155,VALID,35,VALID,0.123047,
2009-05-04, 02:49:05,VALID,1004.44,VALID,0,VALID,88.7315,VALID,0,VALID,26.155,VALID,35,VALID,0.382031,
2009-05-04, 02:50:05,VALID,1004.45,VALID,0,VALID,88.8917,VALID,0,VALID,26.1355,VALID,20,VALID,0.757031,
2009-05-04, 02:51:04,VALID,1004.41,VALID,0,VALID,88.9222,VALID,0,VALID,26.1765,VALID,32,VALID,0.342969,
2009-05-04, 02:52:04,VALID,1004.44,VALID,0,VALID,88.9604,VALID,0,VALID,26.1745,VALID,33,VALID,0.445313,
2009-05-04, 02:53:04,VALID,1004.42,VALID,0,VALID,88.8917,VALID,0,VALID,26.194,VALID,18,VALID,1.18945,
2009-05-04, 02:54:04,VALID,1004.44,VALID,0,VALID,88.5332,VALID,0,VALID,26.3518,VALID,18,VALID,1.3543,
2009-05-04, 02:55:04,VALID,1004.49,VALID,0,VALID,88.0678,VALID,0,VALID,26.4297,VALID,55,VALID,1.17773,
2009-05-04, 02:56:04,VALID,1004.5,VALID,0,VALID,87.7245,VALID,0,VALID,26.4881,VALID,32,VALID,1.06172,
2009-05-04, 02:57:04,VALID,1004.5,VALID,0,VALID,87.549,VALID,0,VALID,26.5076,VALID,48,VALID,1.24102,
2009-05-04, 02:58:04,VALID,1004.48,VALID,0,VALID,86.4962,VALID,0,VALID,26.4881,VALID,79,VALID,1.50391,
2009-05-04, 02:59:04,VALID,1004.49,VALID,0,VALID,85.9088,VALID,0,VALID,26.4687,VALID,65,VALID,1.53477,
2009-05-04, 03:00:04,VALID,1004.52,VALID,0,VALID,85.6418,VALID,0,VALID,26.4082,VALID,52,VALID,1.47969,
2009-05-04, 03:01:04,VALID,1004.45,VALID,0,VALID,84.0397,VALID,0,VALID,26.3323,VALID,50,VALID,2.46953,
2009-05-04, 03:02:04,VALID,1004.41,VALID,0,VALID,83.4676,VALID,0,VALID,26.2329,VALID,82,VALID,1.37891,
2009-05-04, 03:03:04,VALID,1004.4,VALID,0,VALID,83.1472,VALID,0,VALID,26.1765,VALID,65,VALID,1.49141,
2009-05-04, 03:04:04,VALID,1004.35,VALID,0,VALID,83.4371,VALID,0,VALID,26.0966,VALID,40,VALID,0.996484,
2009-05-04, 03:05:04,VALID,1004.35,VALID,0,VALID,82.9641,VALID,0,VALID,26.0401,VALID,56,VALID,1.66016,
2009-05-04, 03:06:04,VALID,1004.33,VALID,0,VALID,83.254,VALID,0,VALID,25.9427,VALID,72,VALID,0.603906,
2009-05-04, 03:07:04,VALID,1004.33,VALID,0,VALID,82.5903,VALID,0.100563,VALID,25.8648,VALID,30,VALID,1.6125,
2009-05-04, 03:08:04,VALID,1004.3,VALID,0,VALID,82.2775,VALID,0,VALID,25.785,VALID,359,VALID,1.33594,
2009-05-04, 03:09:04,VALID,1004.26,VALID,0,VALID,81.5832,VALID,0,VALID,25.748,VALID,72,VALID,1.26016,
2009-05-04, 03:10:04,VALID,1004.26,VALID,0,VALID,81.8731,VALID,0.100563,VALID,25.6895,VALID,38,VALID,0.773438,
2009-05-04, 03:11:04,VALID,1004.25,VALID,0,VALID,81.9876,VALID,0,VALID,25.6311,VALID,49,VALID,1.48867,
2009-05-04, 03:12:04,VALID,1004.23,VALID,0,VALID,82.2393,VALID,0,VALID,25.5921,VALID,32,VALID,1.55977,
2009-05-04, 03:13:04,VALID,1004.26,VALID,0,VALID,82.575,VALID,0,VALID,25.5727,VALID,53,VALID,1.00937,
2009-05-04, 03:14:04,VALID,1004.23,VALID,0,VALID,82.6589,VALID,0,VALID,25.5142,VALID,26,VALID,1.45313,
2009-05-04, 03:15:04,VALID,1004.25,VALID,0,VALID,82.4835,VALID,0,VALID,25.4734,VALID,11,VALID,0.817578,
2009-05-04, 03:16:04,VALID,1004.22,VALID,0,VALID,82.7886,VALID,0,VALID,25.4344,VALID,37,VALID,1.43164,
2009-05-04, 03:17:04,VALID,1004.25,VALID,0,VALID,83.0632,VALID,0,VALID,25.4169,VALID,30,VALID,1.40195,
2009-05-04, 03:18:04,VALID,1004.22,VALID,0,VALID,82.7352,VALID,0,VALID,25.3779,VALID,60,VALID,0.601953,
2009-05-04, 03:19:04,VALID,1004.21,VALID,0,VALID,82.2241,VALID,0,VALID,25.3798,VALID,18,VALID,1.9375,
2009-05-04, 03:20:04,VALID,1004.19,VALID,0,VALID,82.0944,VALID,0,VALID,25.337,VALID,27,VALID,1.36836,
2009-05-04, 03:21:04,VALID,1004.19,VALID,0,VALID,81.9876,VALID,0,VALID,25.3,VALID,20,VALID,1.74961,
2009-05-04, 03:22:04,VALID,1004.17,VALID,0,VALID,81.4154,VALID,0,VALID,25.2806,VALID,19,VALID,2.28437,
2009-05-04, 03:23:04,VALID,1004.14,VALID,0,VALID,81.568,VALID,0,VALID,25.2806,VALID,23,VALID,1.54648,
2009-05-04, 03:24:04,VALID,1004.14,VALID,0,VALID,81.8274,VALID,0,VALID,25.3,VALID,60,VALID,0.621094,
2009-05-04, 03:25:04,VALID,1004.15,VALID,0,VALID,82.0868,VALID,0,VALID,25.2397,VALID,56,VALID,0.803906,
2009-05-04, 03:26:04,VALID,1004.19,VALID,0,VALID,82.2012,VALID,0,VALID,25.2416,VALID,39,VALID,0.861719,
2009-05-04, 03:27:04,VALID,1004.15,VALID,0,VALID,82.3538,VALID,0,VALID,25.2611,VALID,21,VALID,0.997656,
2009-05-04, 03:28:04,VALID,1004.15,VALID,0,VALID,82.0715,VALID,0,VALID,25.2806,VALID,36,VALID,0.973437,
2009-05-04, 03:29:04,VALID,1004.11,VALID,0,VALID,81.8045,VALID,0,VALID,25.3604,VALID,5,VALID,1.75039,
2009-05-04, 03:30:04,VALID,1004.14,VALID,0,VALID,81.7358,VALID,0,VALID,25.3779,VALID,63,VALID,0.6875,
2009-05-04, 03:31:04,VALID,1004.1,VALID,0,VALID,81.4688,VALID,0,VALID,25.3974,VALID,51,VALID,0.945703,
2009-05-04, 03:32:04,VALID,1004.1,VALID,0,VALID,81.8274,VALID,0,VALID,25.3974,VALID,36,VALID,1.61875,
2009-05-04, 03:33:04,VALID,1004.08,VALID,0,VALID,81.6061,VALID,0,VALID,25.4149,VALID,51,VALID,1.71172,
2009-05-04, 03:34:04,VALID,1004.06,VALID,0,VALID,81.5222,VALID,0,VALID,25.4948,VALID,32,VALID,1.3293,
2009-05-04, 03:35:04,VALID,1004.1,VALID,0,VALID,81.8274,VALID,0,VALID,25.4948,VALID,22,VALID,1.20625,
2009-05-04, 03:36:04,VALID,1004.12,VALID,0,VALID,81.629,VALID,0,VALID,25.4734,VALID,51,VALID,0.820703,
2009-05-04, 03:37:04,VALID,1004.13,VALID,0,VALID,81.0797,VALID,0,VALID,25.4753,VALID,21,VALID,1.70352,
2009-05-04, 03:38:04,VALID,1004.2,VALID,0,VALID,80.9272,VALID,0,VALID,25.5142,VALID,31,VALID,1.45586,
2009-05-04, 03:39:04,VALID,1004.19,VALID,0,VALID,80.2024,VALID,0,VALID,25.5727,VALID,38,VALID,2.18398,
2009-05-04, 03:40:04,VALID,1004.23,VALID,0,VALID,79.8668,VALID,0,VALID,25.6506,VALID,32,VALID,1.16914,
2009-05-04, 03:41:04,VALID,1004.21,VALID,0,VALID,79.4777,VALID,0,VALID,25.7109,VALID,3,VALID,0.937891,
2009-05-04, 03:42:04,VALID,1004.24,VALID,0,VALID,79.7828,VALID,0,VALID,25.7285,VALID,27,VALID,0.444531,
2009-05-04, 03:43:04,VALID,1004.27,VALID,0,VALID,80.3703,VALID,0,VALID,25.6876,VALID,28,VALID,0.389844,
2009-05-04, 03:44:04,VALID,1004.26,VALID,0,VALID,79.6608,VALID,0,VALID,25.6895,VALID,84,VALID,0.473437,
2009-05-04, 03:45:04,VALID,1004.23,VALID,0,VALID,79.4548,VALID,0.100563,VALID,25.6506,VALID,87,VALID,1.04805,
2009-05-04, 03:46:04,VALID,1004.24,VALID,0,VALID,79.7828,VALID,0,VALID,25.6311,VALID,63,VALID,0.711719,